[[{"header":{"parameterUnit":"m.s-1","parameterCategory":1,"la1":30.2991,"la2":30.254,"lo1":-89.0895,"lo2":-89.0444,"dy":0.0017,"dx":0.0017,"nx":28,"ny":28,"refTime":"2025-03-17T03:00:00:Z","depth":0,"parameterNumber":2,"parameterNumberName":"U-component_of_WINDS"},"data":[0,0,0,0,0,0,0,0,0,0,0,0,0,0,0,0,0,0,0,0,0,0,0,0,0,0,0,0,0,0,0,0,0,0,0,0,0,0,0,0,0,0,0,0,0,0,0,0,0,0,0,0,0,0,0,0,0,0,1.5912,1.5913,0,1.5975,1.5976,1.5976,1.5951,1.5949,1.5948,1.5947,1.6014,1.6017,1.602,0,0,0,0,0,0,0,0,0,0,0,0,0,1.5774,1.5777,1.5912,1.5913,1.5914,1.5975,1.5976,1.5977,1.5951,1.5949,1.5948,1.5946,1.6013,1.6016,1.602,0,0,0,0,0,0,0,0,0,0,0,0,0,1.5835,1.5778,1.5912,1.5908,1.5909,1.5975,1.5976,1.5977,1.5952,1.5949,1.5947,1.5945,1.6011,1.6016,1.6021,1.6095,0,0,1.6035,1.6037,0,0,0,0,0,0,0,0,1.5832,1.584,1.5908,1.5909,1.5909,1.5953,1.5952,1.6017,1.5952,1.5935,1.5947,1.5944,1.5995,1.6001,1.6018,1.6098,1.6101,1.6036,1.6039,1.6041,1.6042,0,0,0,0,0,0,0,1.5828,1.5838,1.5937,1.5909,1.591,1.5905,1.5911,1.5964,1.5977,1.5937,1.5935,1.5943,1.5995,1.6014,1.602,1.6102,1.6036,1.604,1.6043,1.6045,1.6249,1.6252,0,0,0,0,0,0,1.5823,1.5834,1.5935,1.5939,1.5864,1.5909,1.5916,1.5941,1.5977,1.598,1.5944,1.5941,1.6007,1.6014,1.6022,1.6113,1.6041,1.6045,1.6048,1.6247,1.625,1.6253,0,0,0,0,0,0,1.582,1.5832,1.5933,1.5886,1.5899,1.5914,1.5942,1.5944,1.5962,1.5982,1.5985,1.596,1.6005,1.6015,1.6078,1.6115,1.6047,1.6052,1.6244,1.6248,1.6251,1.6295,0,0,0,0,0,0,1.5816,1.5831,1.5858,1.5887,1.5901,1.5986,1.5944,1.5946,1.597,1.5966,1.5998,1.6001,1.6004,1.6071,1.6082,1.612,1.6055,1.6241,1.6246,1.625,1.629,1.63,1.6308,0,0,0,0,0,1.5811,1.5868,1.586,1.5872,1.5935,1.5988,1.5996,1.5998,1.5973,1.6001,1.6015,1.6,1.6109,1.6077,1.609,1.613,1.6238,1.6244,1.625,1.6286,1.6298,1.6308,0,0,0,0,0,0,1.5844,1.5872,1.5863,1.593,1.5957,1.5984,1.6019,1.6009,1.6044,1.604,1.604,1.6048,1.6113,1.6128,1.6092,1.6206,1.617,1.6179,1.6193,1.6205,1.6213,1.6209,1.6059,0,0,0,0,0,1.5859,1.5898,1.5921,1.5978,1.5992,1.6004,1.6027,1.6025,1.6053,1.6065,1.6083,1.6112,1.6153,1.6179,1.6218,1.6292,1.63,1.6327,1.6335,1.6343,1.635,1.6394,1.6406,1.6272,1.6272,1.6272,0,0,1.589,1.591,1.5935,1.5986,1.6006,1.6049,1.6013,1.6059,1.6091,1.6072,1.6132,1.6147,1.6179,1.6249,1.628,1.6263,1.639,1.635,1.6356,1.636,1.6401,1.6414,1.6425,1.6276,1.6275,1.6274,0,0,1.597,1.5988,1.6039,1.606,1.6092,1.61,1.6112,1.6141,1.615,1.621,1.6197,1.6236,1.6306,1.633,1.6352,1.6443,1.6432,1.6455,1.6502,1.6544,1.6555,1.6564,1.6599,1.6611,1.6463,1.6463,1.6463,0,1.6005,1.6067,1.6066,1.6114,1.6138,1.6122,1.6175,1.6196,1.6239,1.6257,1.6237,1.6325,1.6346,1.6422,1.6445,1.6462,1.6478,1.6452,1.6553,1.6563,1.6572,1.6605,1.6617,1.6466,1.6466,1.6465,1.6465,0,1.611,1.6154,1.6191,1.6233,1.6261,1.6311,1.632,1.6348,1.6345,1.6356,1.6419,1.6443,1.6488,1.6505,1.6503,1.6582,1.6571,1.6552,1.6517,1.6587,1.6618,1.6631,1.647,1.6469,1.6468,1.6467,0,0,1.6211,1.6253,1.6267,1.6287,1.6321,1.6356,1.6406,1.6449,1.6475,1.6505,1.6549,1.661,1.6593,1.6618,1.6618,1.6655,1.6729,1.6632,1.6633,1.6651,1.682,1.6835,1.685,1.6721,1.6723,1.6725,1.6818,0,1.6294,1.6381,1.6383,1.6464,1.6506,1.6493,1.6537,1.6564,1.6576,1.6614,1.6628,1.6671,1.6645,1.666,1.6696,1.6712,1.6763,1.6705,1.6764,1.6766,1.6757,1.6866,1.6881,1.6968,1.683,1.6832,1.6834,0,1.6402,1.6437,1.6521,1.6552,1.657,1.6609,1.6651,1.6687,1.6718,1.6724,1.6753,1.6748,1.6802,1.6765,1.684,1.6801,1.6825,1.6837,1.6841,1.6847,1.6805,1.6877,1.6995,1.7009,1.6853,1.6851,1.685,0,1.647,1.6537,1.6597,1.6614,1.6651,1.668,1.6697,1.6726,1.6753,1.6789,1.6807,1.6849,1.6872,1.6906,1.6914,1.6886,1.6991,1.6953,1.6999,1.6999,1.7022,1.7021,1.7148,1.7036,1.7036,1.7035,1.7035,0,1.6563,1.6616,1.6628,1.6665,1.6725,1.6728,1.6787,1.6803,1.6829,1.6871,1.6862,1.6901,1.6909,1.6951,1.6957,1.702,1.703,1.7039,1.704,1.704,1.7039,1.7057,1.7052,1.7039,1.7038,1.7037,1.7037,0,1.6648,1.6658,1.6723,1.6753,1.6762,1.6805,1.6832,1.6869,1.688,1.6933,1.6945,1.6963,1.7012,1.7023,1.7081,1.7086,1.7161,1.7156,1.715,1.715,1.7196,1.7193,1.734,1.736,1.7234,1.7235,1.7236,0,1.6708,1.6748,1.6783,1.681,1.6828,1.6871,1.6898,1.6904,1.6933,1.6973,1.7006,1.7053,1.7092,1.7171,1.719,1.7235,1.7232,1.7281,1.7239,1.7239,1.7235,1.7233,1.7239,1.7289,1.729,1.7291,1.7292,0,1.6813,1.6816,1.6855,1.6897,1.693,1.6963,1.6995,1.7017,1.7027,1.7061,1.711,1.714,1.72,1.7249,1.7294,1.7314,1.7306,1.7305,1.7319,1.732,1.7316,1.7321,1.7174,1.7302,1.7301,1.73,1.73,1.73,1.6888,1.6925,1.6955,1.7,1.7024,1.7055,1.7091,1.7108,1.7149,1.7197,1.7198,1.7253,1.7286,1.7347,1.7369,1.7413,1.7399,1.7417,1.7422,1.7427,1.7433,1.7308,1.7421,1.7421,1.7421,1.7421,1.7421,0,1.6995,1.7014,1.7055,1.71,1.7136,1.7124,1.7159,1.7191,1.7239,1.727,1.7308,1.7367,1.7414,1.7438,1.7485,1.7517,1.7515,1.7529,1.7528,1.7533,1.7442,1.7426,1.753,1.753,1.753,1.753,1.753,1.753,1.7055,1.7116,1.7124,1.7198,1.7218,1.7271,1.7292,1.7321,1.7346,1.7412,1.7451,1.7466,1.7495,1.7545,1.7589,1.7595,1.7614,1.7631,1.7635,1.755,1.7539,1.7528,1.7514,1.7634,1.7635,1.7723,1.7723,1.7724]},{"header":{"parameterUnit":"m.s-1","parameterCategory":1,"la1":30.2991,"la2":30.254,"lo1":-89.0895,"lo2":-89.0444,"dy":0.0017,"dx":0.0017,"nx":28,"ny":28,"refTime":"2025-03-17T03:00:00:Z","depth":0,"parameterNumber":3,"parameterNumberName":"V-component_of_WINDS"},"data":[0,0,0,0,0,0,0,0,0,0,0,0,0,0,0,0,0,0,0,0,0,0,0,0,0,0,0,0,0,0,0,0,0,0,0,0,0,0,0,0,0,0,0,0,0,0,0,0,0,0,0,0,0,0,0,0,0,0,-1.5472,-1.5473,0,-1.5546,-1.5547,-1.5548,-1.5605,-1.5606,-1.5606,-1.5607,-1.5682,-1.5684,-1.5685,0,0,0,0,0,0,0,0,0,0,0,0,0,-1.538,-1.5382,-1.5472,-1.5473,-1.5474,-1.5546,-1.5547,-1.5548,-1.5605,-1.5606,-1.5607,-1.5607,-1.5682,-1.5684,-1.5685,0,0,0,0,0,0,0,0,0,0,0,0,0,-1.5434,-1.5382,-1.5472,-1.5511,-1.5516,-1.5546,-1.5547,-1.5548,-1.5605,-1.5606,-1.5607,-1.5608,-1.5681,-1.5683,-1.5686,-1.5683,0,0,-1.5692,-1.5693,0,0,0,0,0,0,0,0,-1.5431,-1.5437,-1.5505,-1.5509,-1.5513,-1.5567,-1.5542,-1.5593,-1.5605,-1.5571,-1.5607,-1.5608,-1.5643,-1.5649,-1.5661,-1.5686,-1.569,-1.5693,-1.5694,-1.5695,-1.5696,0,0,0,0,0,0,0,-1.5427,-1.5434,-1.5502,-1.5505,-1.5511,-1.5525,-1.5534,-1.5552,-1.5602,-1.5574,-1.5578,-1.5586,-1.5646,-1.5659,-1.5663,-1.5691,-1.5693,-1.5695,-1.5696,-1.5697,-1.5718,-1.5717,0,0,0,0,0,0,-1.5417,-1.5431,-1.5499,-1.5504,-1.5473,-1.5526,-1.5536,-1.5549,-1.5602,-1.561,-1.5586,-1.5589,-1.5654,-1.566,-1.5666,-1.5666,-1.5695,-1.5697,-1.5698,-1.5719,-1.5718,-1.5717,0,0,0,0,0,0,-1.5415,-1.5423,-1.5496,-1.5469,-1.5479,-1.5527,-1.5542,-1.555,-1.5563,-1.561,-1.5619,-1.5589,-1.5655,-1.5663,-1.5678,-1.5669,-1.5698,-1.57,-1.572,-1.5718,-1.5717,-1.5665,0,0,0,0,0,0,-1.5412,-1.5422,-1.5421,-1.5468,-1.548,-1.5507,-1.5541,-1.5551,-1.5567,-1.5571,-1.5616,-1.5625,-1.5656,-1.5675,-1.568,-1.5673,-1.5702,-1.5721,-1.5719,-1.5718,-1.5668,-1.5663,-1.5658,0,0,0,0,0,-1.5409,-1.5403,-1.5421,-1.5429,-1.548,-1.5506,-1.5513,-1.555,-1.5566,-1.5565,-1.5596,-1.5623,-1.5669,-1.5676,-1.5683,-1.5676,-1.5721,-1.5719,-1.5718,-1.567,-1.5664,-1.5658,0,0,0,0,0,0,-1.5354,-1.541,-1.543,-1.544,-1.5468,-1.5516,-1.5517,-1.5542,-1.5566,-1.557,-1.5615,-1.5624,-1.5635,-1.5657,-1.5663,-1.5676,-1.5699,-1.5698,-1.566,-1.5654,-1.5649,-1.5643,-1.5704,0,0,0,0,0,-1.5343,-1.5359,-1.5408,-1.5412,-1.5425,-1.5468,-1.5481,-1.5507,-1.5538,-1.555,-1.5582,-1.561,-1.5632,-1.5645,-1.5667,-1.5672,-1.5682,-1.5671,-1.5666,-1.5661,-1.566,-1.5664,-1.5659,-1.5711,-1.5711,-1.5711,0,0,-1.5321,-1.5353,-1.5361,-1.5402,-1.5427,-1.5442,-1.5478,-1.5493,-1.5505,-1.5552,-1.5569,-1.5593,-1.5628,-1.5638,-1.5645,-1.5657,-1.5648,-1.5659,-1.5655,-1.5656,-1.5662,-1.5657,-1.5652,-1.571,-1.571,-1.571,0,0,-1.5287,-1.5314,-1.532,-1.5345,-1.5382,-1.5411,-1.5412,-1.5456,-1.5474,-1.5492,-1.5527,-1.5542,-1.5578,-1.5601,-1.5618,-1.5594,-1.562,-1.56,-1.5573,-1.5577,-1.5572,-1.5569,-1.556,-1.5556,-1.5599,-1.5599,-1.5599,0,-1.5255,-1.528,-1.532,-1.5333,-1.535,-1.5394,-1.54,-1.5422,-1.5464,-1.5474,-1.5488,-1.5534,-1.5561,-1.5577,-1.5571,-1.5583,-1.5586,-1.5595,-1.557,-1.5567,-1.5564,-1.5556,-1.5552,-1.5596,-1.5597,-1.5597,-1.5597,0,-1.5237,-1.5254,-1.5255,-1.5294,-1.5312,-1.5321,-1.5363,-1.5375,-1.54,-1.5427,-1.5444,-1.5478,-1.5508,-1.5514,-1.5538,-1.5533,-1.554,-1.5561,-1.5585,-1.5556,-1.5549,-1.5546,-1.5592,-1.5593,-1.5594,-1.5595,0,0,-1.5171,-1.5233,-1.5232,-1.5251,-1.5295,-1.5309,-1.5321,-1.535,-1.5359,-1.5387,-1.5398,-1.5427,-1.5447,-1.5466,-1.5494,-1.5497,-1.5475,-1.5518,-1.5519,-1.5508,-1.5471,-1.5454,-1.5449,-1.5493,-1.5492,-1.5492,-1.5468,0,-1.5144,-1.5167,-1.5204,-1.5215,-1.5231,-1.5273,-1.5283,-1.5311,-1.5337,-1.5355,-1.5384,-1.5404,-1.5429,-1.544,-1.5446,-1.5476,-1.5468,-1.5479,-1.5502,-1.5503,-1.5491,-1.5446,-1.5428,-1.5403,-1.5465,-1.5465,-1.5464,0,-1.5115,-1.5141,-1.5153,-1.5196,-1.5204,-1.5212,-1.5242,-1.5258,-1.5291,-1.531,-1.5331,-1.5361,-1.5376,-1.5399,-1.5419,-1.5426,-1.5438,-1.5454,-1.5454,-1.5457,-1.5481,-1.5446,-1.5396,-1.5392,-1.5461,-1.5461,-1.5461,0,-1.5064,-1.5101,-1.5114,-1.5128,-1.5179,-1.5184,-1.5205,-1.5239,-1.5254,-1.528,-1.5291,-1.5318,-1.5333,-1.5353,-1.539,-1.5403,-1.5406,-1.5432,-1.5422,-1.5421,-1.5419,-1.5419,-1.5369,-1.5429,-1.5429,-1.5429,-1.5429,0,-1.5029,-1.5035,-1.5091,-1.5098,-1.5106,-1.5149,-1.5155,-1.5181,-1.521,-1.5223,-1.5262,-1.5274,-1.5322,-1.5339,-1.5368,-1.5381,-1.5387,-1.5403,-1.541,-1.5398,-1.5396,-1.5406,-1.5408,-1.5428,-1.5428,-1.5429,-1.5429,0,-1.4973,-1.5011,-1.5027,-1.5074,-1.5086,-1.5089,-1.5129,-1.5138,-1.5167,-1.5183,-1.5189,-1.5234,-1.5256,-1.5295,-1.5329,-1.5349,-1.5354,-1.5368,-1.5343,-1.5347,-1.5334,-1.5334,-1.5288,-1.5284,-1.5347,-1.5347,-1.5346,0,-1.4947,-1.4953,-1.5,-1.5011,-1.5031,-1.5049,-1.5065,-1.5107,-1.5122,-1.516,-1.5164,-1.5189,-1.5212,-1.5245,-1.5281,-1.5307,-1.5321,-1.5303,-1.5325,-1.5313,-1.5319,-1.5318,-1.5318,-1.5297,-1.5296,-1.5296,-1.5295,0,-1.4898,-1.4916,-1.4937,-1.4965,-1.4982,-1.5006,-1.5031,-1.5039,-1.5087,-1.5101,-1.5124,-1.5142,-1.5176,-1.52,-1.5231,-1.5254,-1.5282,-1.5288,-1.5287,-1.5274,-1.5259,-1.5266,-1.5328,-1.5288,-1.5289,-1.529,-1.529,-1.529,-1.4856,-1.4862,-1.4896,-1.4918,-1.4942,-1.4965,-1.4975,-1.5005,-1.5025,-1.5056,-1.508,-1.5101,-1.5135,-1.5179,-1.52,-1.5218,-1.5231,-1.5229,-1.5229,-1.5227,-1.5222,-1.5257,-1.5224,-1.5224,-1.5224,-1.5224,-1.5224,0,-1.4807,-1.4831,-1.4851,-1.4886,-1.4903,-1.4929,-1.4958,-1.4971,-1.4989,-1.5018,-1.5039,-1.5065,-1.5089,-1.5127,-1.5154,-1.5161,-1.5174,-1.5166,-1.5165,-1.517,-1.5209,-1.5207,-1.5155,-1.5155,-1.5155,-1.5155,-1.5155,-1.5155,-1.4784,-1.4796,-1.4818,-1.4843,-1.4867,-1.4888,-1.4903,-1.4924,-1.4947,-1.4975,-1.4995,-1.5019,-1.5052,-1.5082,-1.5105,-1.5116,-1.5123,-1.5111,-1.5125,-1.5161,-1.5167,-1.5173,-1.5171,-1.5112,-1.5112,-1.5084,-1.5084,-1.5084]}]]